Los Alamos, NM

3:44 PM MDT on May 24, 2017 (GMT -0600)
Los Alamos

Weather History for KLAM - September, 2013

Change the Weather History Date:

Saturday, September 21, 2013

  Actual Average Record
Temperature  
Mean Temperature 62 °F -  
Max Temperature 70 °F 67 °F 84 °F (2005)
Min Temperature 53 °F 44 °F 25 °F (1983)
Degree Days  
Heating Degree Days 4    
Growing Degree Days 12 (Base 50)    
Moisture  
Dew Point 52 °F    
Average Humidity 75    
Maximum Humidity 100    
Minimum Humidity 51    
Precipitation  
Precipitation 0.51 in - - ()
Sea Level Pressure  
Sea Level Pressure 30.22 in    
Wind  
Wind Speed 6 mph (South)    
Max Wind Speed 20 mph    
Max Gust Speed 30 mph    
Visibility 10 miles    
Events Rain    
Averages and records for this station are not official NWS values.
T = Trace of Precipitation, MM = Missing Value Source: NWS Daily Summary

Daily Weather History Graph

Daily Weather History Graph

Search for Another Location

Airport or City:

Trip Planner

Search our weather history database for the weather conditions in past years. The results will help you decide how hot, cold, wet, or windy it might be!

Date:

Astronomy

Sep. 21, 2013 Rise Set
Actual Time 6:52 AM MDT 7:02 PM MDT
Civil Twilight 6:26 AM MDT 7:28 PM MDT
Nautical Twilight 5:57 AM MDT 7:58 PM MDT
Astronomical Twilight 5:26 AM MDT 8:28 PM MDT
Moon 8:22 PM MDT (9/21) 9:07 AM MDT (9/21)
Length of Visible Light 13h 01m
Length of Day
12h 10m
Waning Gibbous, 94% of the Moon is Illuminated
Sep 21
Waning Gibbous
Sep 26
Last Quarter
Oct 4
New
Oct 11
First Quarter
Oct 18
Full

Hourly Weather History & Observations

Time (MDT) Temp. Dew Point Humidity Pressure Visibility Wind Dir Wind Speed Gust Speed Precip Events Conditions
12:15 AM 55.4 °F 53.6 °F 94% 30.29 in 10.0 mi SSE 6.9 mph - N/A   Clear
12:35 AM 54.9 °F 53.6 °F 96% 30.27 in 10.0 mi South 6.9 mph - N/A   Clear
12:55 AM 54.7 °F 53.6 °F 96% 30.27 in 10.0 mi South 6.9 mph - N/A   Clear
1:15 AM 54.5 °F 53.4 °F 96% 30.27 in 10.0 mi South 6.9 mph - N/A   Clear
1:35 AM 54.0 °F 53.2 °F 97% 30.28 in 10.0 mi South 6.9 mph - N/A   Clear
1:55 AM 53.8 °F 53.6 °F 99% 30.28 in 10.0 mi South 8.1 mph - N/A   Clear
2:15 AM 53.6 °F 53.4 °F 99% 30.28 in 10.0 mi South 8.1 mph - N/A   Clear
2:35 AM 53.4 °F 53.4 °F 100% 30.27 in 10.0 mi South 8.1 mph - N/A   Clear
2:55 AM 53.2 °F 53.2 °F 100% 30.27 in 10.0 mi South 6.9 mph - N/A   Mostly Cloudy
3:15 AM 53.2 °F 53.2 °F 100% 30.27 in 10.0 mi South 6.9 mph - N/A   Mostly Cloudy
3:35 AM 53.4 °F 53.4 °F 100% 30.27 in 10.0 mi South 5.8 mph - N/A   Mostly Cloudy
3:55 AM 53.8 °F 53.6 °F 99% 30.27 in 10.0 mi South 6.9 mph - N/A   Overcast
4:15 AM 53.8 °F 53.6 °F 99% 30.27 in 10.0 mi South 5.8 mph - N/A   Overcast
4:35 AM 54.0 °F 53.6 °F 99% 30.27 in 10.0 mi Calm Calm - N/A   Overcast
4:55 AM 54.1 °F 53.6 °F 98% 30.27 in 10.0 mi South 4.6 mph - N/A   Overcast
5:15 AM 54.3 °F 53.6 °F 97% 30.27 in 10.0 mi South 3.5 mph - N/A   Overcast
5:35 AM 54.5 °F 53.2 °F 96% 30.27 in 10.0 mi South 3.5 mph - N/A   Overcast
5:55 AM 54.5 °F 53.2 °F 96% 30.27 in 10.0 mi SSW 3.5 mph - N/A   Overcast
6:15 AM 54.3 °F 52.7 °F 94% 30.27 in 10.0 mi SSW 4.6 mph - N/A   Overcast
6:35 AM 54.0 °F 52.7 °F 95% 30.27 in 10.0 mi SSW 3.5 mph - N/A   Overcast
6:55 AM 53.8 °F 52.7 °F 96% 30.27 in 10.0 mi South 4.6 mph - N/A   Overcast
7:15 AM 53.6 °F 52.5 °F 96% 30.27 in 10.0 mi SW 3.5 mph - N/A   Mostly Cloudy
7:35 AM 53.2 °F 52.2 °F 96% 30.27 in 10.0 mi SW 4.6 mph - N/A   Scattered Clouds
7:55 AM 53.8 °F 52.7 °F 96% 30.28 in 10.0 mi Calm Calm - N/A   Mostly Cloudy
8:15 AM 53.8 °F 52.7 °F 96% 30.29 in 10.0 mi Calm Calm - N/A   Overcast
8:35 AM 54.5 °F 53.1 °F 95% 30.29 in 10.0 mi Calm Calm - N/A   Overcast
8:55 AM 54.7 °F 52.7 °F 93% 30.29 in 10.0 mi Calm Calm - N/A   Overcast
9:15 AM 55.2 °F 52.2 °F 89% 30.29 in 10.0 mi Calm Calm - N/A   Overcast
9:35 AM 55.8 °F 52.2 °F 88% 30.29 in 10.0 mi Calm Calm - N/A   Overcast
9:55 AM 57.2 °F 52.3 °F 84% 30.28 in 10.0 mi Calm Calm - N/A   Overcast
10:15 AM 59.0 °F 52.3 °F 79% 30.28 in 10.0 mi Calm Calm - N/A   Mostly Cloudy
10:35 AM 59.2 °F 52.2 °F 78% 30.28 in 10.0 mi Calm Calm - N/A   Scattered Clouds
10:55 AM 60.6 °F 52.7 °F 75% 30.28 in 10.0 mi SE 3.5 mph - N/A   Mostly Cloudy
11:15 AM 62.2 °F 53.1 °F 72% 30.27 in 10.0 mi South 3.5 mph - N/A   Scattered Clouds
11:35 AM 63.5 °F 53.2 °F 69% 30.27 in 10.0 mi SSE 4.6 mph - N/A   Scattered Clouds
11:55 AM 64.6 °F 53.8 °F 68% 30.26 in 10.0 mi SSW 3.5 mph - N/A   Mostly Cloudy
12:15 PM 65.7 °F 54.0 °F 66% 30.26 in 10.0 mi SE 6.9 mph - N/A   Mostly Cloudy
12:35 PM 65.8 °F 54.0 °F 65% 30.25 in 10.0 mi ESE 3.5 mph - N/A   Scattered Clouds
12:55 PM 66.7 °F 54.3 °F 64% 30.24 in 10.0 mi SSE 10.4 mph - N/A   Scattered Clouds
1:15 PM 67.1 °F 53.4 °F 61% 30.23 in 10.0 mi South 8.1 mph - N/A   Scattered Clouds
1:35 PM 68.2 °F 54.0 °F 60% 30.23 in 10.0 mi SSE 10.4 mph 16.1 mph N/A   Scattered Clouds
1:55 PM 68.0 °F 54.1 °F 61% 30.21 in 10.0 mi SE 9.2 mph - N/A   Mostly Cloudy
2:15 PM 68.0 °F 53.2 °F 59% 30.21 in 10.0 mi SE 9.2 mph - N/A   Overcast
2:35 PM 70.3 °F 52.9 °F 54% 30.19 in 10.0 mi South 8.1 mph - N/A   Overcast
2:55 PM 68.5 °F 52.2 °F 56% 30.18 in 10.0 mi SE 8.1 mph - N/A   Overcast
3:15 PM 67.5 °F 52.9 °F 59% 30.18 in 10.0 mi East 5.8 mph 16.1 mph 0.01 in Rain Rain
3:35 PM 60.3 °F 52.7 °F 76% 30.18 in 2.0 mi North 19.6 mph 29.9 mph 0.15 in Rain Heavy Rain
3:55 PM 59.7 °F 49.8 °F 70% 30.17 in 2.5 mi East 15.0 mph 18.4 mph 0.50 in Rain Heavy Rain
4:15 PM 61.5 °F 50.5 °F 67% 30.16 in 10.0 mi Calm Calm - 0.01 in Rain Light Rain
4:35 PM 65.5 °F 50.9 °F 59% 30.15 in 10.0 mi Calm Calm - 0.01 in   Mostly Cloudy
4:55 PM 66.2 °F 50.7 °F 57% 30.15 in 10.0 mi SW 3.5 mph - 0.01 in   Scattered Clouds
5:15 PM 64.9 °F 50.2 °F 59% 30.13 in 10.0 mi West 6.9 mph - N/A   Clear
5:35 PM 66.4 °F 50.4 °F 56% 30.13 in 10.0 mi WSW 6.9 mph - N/A   Clear
5:55 PM 66.7 °F 50.0 °F 55% 30.13 in 10.0 mi SW 5.8 mph - N/A   Clear
6:15 PM 66.2 °F 49.5 °F 55% 30.13 in 10.0 mi SSW 3.5 mph - N/A   Clear
6:35 PM 67.5 °F 49.1 °F 52% 30.12 in 10.0 mi South 6.9 mph - N/A   Clear
6:55 PM 67.1 °F 48.6 °F 51% 30.11 in 10.0 mi South 8.1 mph - N/A   Clear
7:15 PM 66.4 °F 48.4 °F 52% 30.11 in 10.0 mi South 8.1 mph - N/A   Clear
7:35 PM 65.7 °F 48.6 °F 54% 30.11 in 10.0 mi South 6.9 mph - N/A   Clear
7:55 PM 65.3 °F 48.7 °F 55% 30.11 in 10.0 mi South 6.9 mph - N/A   Clear
8:15 PM 64.4 °F 49.1 °F 58% 30.12 in 10.0 mi South 8.1 mph - N/A   Clear
8:35 PM 63.5 °F 49.1 °F 59% 30.12 in 10.0 mi South 9.2 mph - N/A   Clear
8:55 PM 63.5 °F 48.6 °F 58% 30.13 in 10.0 mi South 6.9 mph - N/A   Clear
9:15 PM 63.0 °F 48.4 °F 59% 30.13 in 10.0 mi South 8.1 mph - N/A   Clear
9:35 PM 63.5 °F 47.5 °F 56% 30.13 in 10.0 mi SSE 10.4 mph - N/A   Clear
9:55 PM 63.5 °F 46.9 °F 55% 30.13 in 10.0 mi SSE 10.4 mph - N/A   Clear
10:15 PM 62.1 °F 46.9 °F 58% 30.13 in 10.0 mi South 8.1 mph - N/A   Clear
10:35 PM 62.4 °F 46.4 °F 56% 30.13 in 10.0 mi South 11.5 mph 16.1 mph N/A   Clear
10:55 PM 61.3 °F 46.8 °F 59% 30.13 in 10.0 mi South 9.2 mph - N/A   Clear
11:15 PM 61.0 °F 46.4 °F 59% 30.14 in 10.0 mi South 9.2 mph - N/A   Clear
11:35 PM 60.8 °F 45.7 °F 57% 30.14 in 10.0 mi SSW 11.5 mph - N/A   Clear
11:55 PM 60.8 °F 44.6 °F 55% 30.14 in 10.0 mi SSW 11.5 mph - N/A   Scattered Clouds